This demonstration page uses our WeatherBlox Daily Observations layout. Learn more.

Left ArrowRight Arrow

39.08367, -84.50855

Hourly Observations for December 5, 2015

Temp ( °F °C ) Dew Point ( °F °C ) Humidity (%) Winds ( mph kmh ) Pressure ( in mb ) Visibility ( mi km ) Precip ( " mm )
12:24 am 00:24 Cloudy with Mist and Fog 30 -1 30 -1 100 100 NE 6 9 30.71 1040 1 2 0.00 0.00
12:36 am 00:36 Cloudy with Mist and Fog 30 -1.1 30 -1.1 100 100 Calm 30.71 1040 1 2 0.00 0.00
12:44 am 00:44 Cloudy with Freezing Fog 30 -1 30 -1 100 100 E 5 7 30.71 1040 1 1 0.00 0.00
12:53 am 00:53 Mostly Cloudy with Freezing Fog 29 -1.7 29 -1.7 100 100 E 5 7 30.69 1039 0 0 0.00 0.00
1:53 am 01:53 Mostly Cloudy with Freezing Fog 29 -1.7 29 -1.7 100 100 Calm 30.68 1039 0 0 0.00 0.00
2:53 am 02:53 Mostly Cloudy with Freezing Fog 29 -1.7 29 -1.7 100 100 Calm 30.69 1039 0 0 0.00 0.00
3:53 am 03:53 Mostly Cloudy with Freezing Fog 30 -1.1 30 -1.1 100 100 Calm 30.70 1040 0 0 0.00 0.00
4:53 am 04:53 Mostly Cloudy with Freezing Fog 30 -1.1 30 -1.1 100 100 NE 6 9 30.69 1039 0 0 0.00 0.00
5:53 am 05:53 Mostly Cloudy with Freezing Fog 29 -1.7 29 -1.7 100 100 E 3 6 30.71 1040 0 0 0.00 0.00
6:53 am 06:53 Mostly Cloudy with Freezing Fog 29 -1.7 29 -1.7 100 100 N 5 7 30.73 1041 0 0 0.00 0.00
7:15 am 07:15 Mostly Cloudy with Freezing Fog 29 -1.7 29 -1.7 100 100 N 6 9 30.74 1041 1 1 0.00 0.00
7:53 am 07:53 Mostly Cloudy with Freezing Fog 29 -1.7 29 -1.7 100 100 N 5 7 30.73 1041 1 1 0.00 0.00
8:00 am 08:00 Mostly Cloudy with Freezing Fog 28 -2 28 -2 100 100 N 5 7 30.74 1041 0 0 0.00 0.00
8:53 am 08:53 Mostly Cloudy with Freezing Fog 29 -1.7 29 -1.7 100 100 NE 6 9 30.73 1041 0 0 0.00 0.00
9:53 am 09:53 Mostly Cloudy with Freezing Fog 29 -1.7 29 -1.7 100 100 ENE 5 7 30.73 1041 0 0 0.00 0.00
10:09 am 10:09 Mostly Cloudy with Freezing Fog 29 -1.7 29 -1.7 100 100 NE 3 6 30.74 1041 0 0 0.00 0.00
10:16 am 10:16 Mostly Cloudy with Freezing Fog 28 -2 28 -2 100 100 NNE 3 6 30.77 1042 1 1 0.00 0.00
10:24 am 10:24 Mostly Cloudy with Freezing Fog 28 -2 28 -2 100 100 Calm 30.77 1042 0 0 0.00 0.00
10:36 am 10:36 Cloudy with Freezing Fog 30 -1 30 -1 100 100 N 3 6 30.74 1041 1 1 0.00 0.00
10:53 am 10:53 Cloudy with Mist and Fog 30 -1.1 30 -1.1 100 100 NNE 3 6 30.73 1041 1 2 0.00 0.00
11:15 am 11:15 Cloudy with Mist and Fog 31 -0.6 30 -1.1 96 96 VRB 3 6 30.74 1041 2 3 0.00 0.00
11:53 am 11:53 Cloudy with Mist and Fog 31 -0.6 31 -0.6 100 100 Calm 30.72 1040 2 3 0.00 0.00
12:53 pm 12:53 Cloudy with Mist and Fog 31 -0.6 31 -0.6 100 100 Calm 30.70 1040 2 3 0.00 0.00
1:53 pm 13:53 Partly Cloudy with Mist and Fog 34 1.1 33 0.6 97 97 N 5 7 30.67 1039 5 8 0.00 0.00
2:53 pm 14:53 Sunny 41 5 34 1.1 76 76 NE 3 6 30.64 1038 7 11 0.00 0.00
3:53 pm 15:53 Sunny 44 6.7 34 1.1 68 68 Calm 30.63 1037 8 13 0.00 0.00
4:53 pm 16:53 Sunny 41 5 34 1.1 76 76 VRB 5 7 30.63 1037 8 13 0.00 0.00
5:53 pm 17:53 Clear 35 1.7 33 0.6 93 93 Calm 30.62 1037 9 14 0.00 0.00
6:53 pm 18:53 Clear 33 0.6 32 0 96 96 Calm 30.63 1037 7 11 0.00 0.00
7:53 pm 19:53 Clear with Mist and Fog 31 -0.6 31 -0.6 100 100 Calm 30.63 1037 3 5 0.00 0.00
8:53 pm 20:53 Clear with Mist and Fog 29 -1.7 28 -2.2 96 96 Calm 30.61 1037 3 5 0.00 0.00
9:30 pm 21:30 Clear with Mist and Fog 28 -2 28 -2 100 100 Calm 30.62 1037 3 4 0.00 0.00
9:38 pm 21:38 Clear with Mist and Fog 27 -3 27 -3 100 100 Calm 30.62 1037 2 3 0.00 0.00
9:53 pm 21:53 Clear with Mist and Fog 28 -2.2 27 -2.8 96 96 Calm 30.61 1037 2 3 0.00 0.00
10:10 pm 22:10 Clear with Freezing Fog 28 -2 28 -2 100 100 Calm 30.62 1037 1 1 0.00 0.00
10:27 pm 22:27 Partly Cloudy with Mist and Fog 27 -3 27 -3 100 100 Calm 30.62 1037 2 3 0.00 0.00
10:29 pm 22:29 Mostly Cloudy with Freezing Fog 26 -3.3 25 -3.9 96 96 Calm 30.62 1037 1 1 0.00 0.00
10:48 pm 22:48 Mostly Cloudy with Freezing Fog 27 -3 27 -3 100 100 Calm 30.62 1037 0 0 0.00 0.00
10:53 pm 22:53 Mostly Cloudy with Freezing Fog 25 -3.9 25 -3.9 100 100 Calm 30.60 1036 0 0 0.00 0.00
11:04 pm 23:04 Mostly Cloudy with Freezing Fog 27 -3 27 -3 100 100 Calm 30.62 1037 0 0 0.00 0.00
11:53 pm 23:53 Mostly Cloudy with Freezing Fog 26 -3.3 25 -3.9 96 96 Calm 30.60 1036 0 0 0.00 0.00

Powered by AerisWeather